Flag for Spain Weather past 2 weeks in Córdoba, Spain

Now
64 °F

Clear.


Feels Like: 64 °F
Forecast: 57 / 80 °F
Wind: 1 mph from Northwest

Location: Cordoba / Aeropuerto

Current Time: Sep 22, 2014 at 7:01:43 AM

Latest Report: Sep 22, 2014 at 6:00 AM


Visibility: 10 mi

Pressure: 29.98 "Hg

Humidity: 94%

Dew point: 63 °F

Location of CórdobaLocation

Historic Weather in Córdoba — Graph

°F

Córdoba temperature yesterday

Maximum temperature yesterday: 81 °F (at 5:00 PM)
Minimum temperature yesterday: 63 °F (at 8:00 AM)
Average temperature yesterday: 71 °F

Past Weeks' High & Low Weather Summary

 TemperatureHumidityPressure
High90 °F (Sep 9, 3:00 PM)100% (Sep 17, 7:00 AM)30.09 "Hg (Sep 17, 7:00 AM)
Low61 °F (Sep 16, 7:00 AM)25% (Sep 14, 6:00 PM)29.77 "Hg (Sep 16, 3:00 PM)
Average75 °F64%29.95 "Hg
* Reported Sep 7 7:00 AM — Sep 22 6:00 AM, Córdoba, Weather by CustomWeather, © 2014

Note: Actual official high and low records may vary slightly from our data, if they occured in-between our weather recording intervals... More about our weather records

Advertising

Córdoba weather history for previous 24 hours

 ConditionsComfort  
Time TempWeatherWind HumidityBarometerVisibility
6:00 AM
Sep 22
64 °FClear.1 mph94%29.98 "Hg10 mi
5:00 AM66 °FOvercast.2 mph88%29.98 "HgN/A
4:00 AM68 °FOvercast.1 mph83%29.98 "HgN/A
3:00 AM68 °FPassing clouds.No wind83%30.01 "HgN/A
1:00 AM68 °FClear.1 mph78%30.01 "Hg10 mi
12:00 AM68 °FClear.1 mph83%30.01 "Hg10 mi
11:00 PM
Sep 21
68 °FClear.3 mph83%30.01 "Hg10 mi
10:00 PM70 °FPassing clouds.5 mph83%30.01 "HgN/A
9:00 PM72 °FPartly sunny.7 mph83%29.98 "HgN/A
8:00 PM73 °FPartly sunny.2 mph69%29.95 "HgN/A
7:00 PM75 °FPassing clouds.1 mph65%29.95 "HgN/A
6:00 PM79 °FSunny.2 mph48%29.95 "Hg10 mi
5:00 PM81 °FSunny.No wind45%29.98 "Hg10 mi
4:00 PM79 °FSunny.2 mph51%30.01 "Hg10 mi
3:00 PM77 °FPassing clouds.2 mph57%30.04 "HgN/A
2:00 PM77 °FPassing clouds.1 mph57%30.04 "HgN/A
1:00 PM73 °FPassing clouds.No wind65%30.07 "HgN/A
12:00 PM72 °FPassing clouds.No wind73%30.09 "HgN/A
11:00 AM70 °FPassing clouds.3 mph73%30.07 "HgN/A
10:00 AM66 °FPassing clouds.No wind88%30.04 "HgN/A
9:00 AM64 °FPassing clouds.No wind94%30.04 "HgN/A
8:00 AM63 °FPassing clouds.No wind100%30.01 "HgN/A
7:00 AM64 °FClear.No wind88%30.01 "Hg10 mi
Weather by CustomWeather, © 2014

See weather overviewHow to use our weather pages